[[{"header":{"parameterUnit":"m.s-1","parameterCategory":2,"la1":30.2991,"la2":30.254,"lo1":-89.0895,"lo2":-89.0444,"dy":0.0017,"dx":0.0017,"nx":28,"ny":28,"refTime":"2025-11-29T03:00:00:Z","depth":"0","parameterNumber":2,"parameterNumberName":"U-component_of_CURRENTS"},"data":[0,0,0,0,0,0,0,0,0,0,0,0,0,0,0,0,0,0,0,0,0,0,0,0,0,0,0,0,0,0,0,0,0,0,0,0,0,0,0,0,0,0,0,0,0,0,0,0,0,0,0,0,0,0,0,0,0,0,-0.2301,-0.2301,0,-0.2343,-0.2344,-0.2344,-0.2357,-0.2356,-0.2356,-0.2355,-0.2353,-0.2353,-0.2353,0,0,0,0,0,0,0,0,0,0,0,0,0,-0.2215,-0.2217,-0.2301,-0.2301,-0.2302,-0.2343,-0.2344,-0.2345,-0.2357,-0.2356,-0.2356,-0.2355,-0.2353,-0.2353,-0.2353,0,0,0,0,0,0,0,0,0,0,0,0,0,-0.2257,-0.2218,-0.2301,-0.2311,-0.2312,-0.2343,-0.2344,-0.2345,-0.2357,-0.2356,-0.2356,-0.2355,-0.2353,-0.2353,-0.2354,-0.2369,0,0,-0.2355,-0.2355,0,0,0,0,0,0,0,0,-0.2254,-0.226,-0.2309,-0.231,-0.2312,-0.2342,-0.2313,-0.235,-0.2357,-0.2342,-0.2355,-0.2355,-0.2344,-0.2345,-0.2358,-0.2369,-0.2369,-0.2355,-0.2355,-0.2356,-0.2356,0,0,0,0,0,0,0,-0.2251,-0.2258,-0.232,-0.231,-0.2311,-0.2308,-0.2314,-0.232,-0.2347,-0.2343,-0.2344,-0.2345,-0.2345,-0.2358,-0.2358,-0.2369,-0.2355,-0.2355,-0.2356,-0.2356,-0.2389,-0.2389,0,0,0,0,0,0,-0.2244,-0.2256,-0.2318,-0.2321,-0.2278,-0.231,-0.2316,-0.2335,-0.2348,-0.2349,-0.2346,-0.2346,-0.2357,-0.2358,-0.2358,-0.2389,-0.2356,-0.2356,-0.2356,-0.2388,-0.2389,-0.239,0,0,0,0,0,0,-0.2242,-0.225,-0.2317,-0.2286,-0.2294,-0.2312,-0.2333,-0.2336,-0.2342,-0.235,-0.235,-0.2348,-0.2357,-0.2357,-0.2369,-0.2388,-0.2356,-0.2357,-0.2388,-0.2388,-0.2389,-0.2443,0,0,0,0,0,0,-0.224,-0.2249,-0.2265,-0.2286,-0.2296,-0.2332,-0.2333,-0.2337,-0.2343,-0.2344,-0.2352,-0.2351,-0.2356,-0.2368,-0.2369,-0.2388,-0.2357,-0.2387,-0.2388,-0.2389,-0.2441,-0.2446,-0.245,0,0,0,0,0,-0.2237,-0.2255,-0.2266,-0.2273,-0.2316,-0.2332,-0.2337,-0.2348,-0.2344,-0.235,-0.236,-0.2351,-0.2375,-0.2369,-0.237,-0.239,-0.2386,-0.2388,-0.2389,-0.2439,-0.2445,-0.245,0,0,0,0,0,0,-0.2224,-0.2258,-0.2271,-0.2299,-0.2313,-0.2333,-0.2339,-0.2345,-0.2359,-0.2354,-0.2362,-0.2363,-0.2381,-0.2374,-0.2367,-0.2401,-0.2378,-0.2379,-0.2415,-0.2421,-0.2426,-0.243,-0.2357,0,0,0,0,0,-0.223,-0.2252,-0.2279,-0.2298,-0.2306,-0.2322,-0.233,-0.2335,-0.2348,-0.2353,-0.2367,-0.2375,-0.2389,-0.2394,-0.2404,-0.2422,-0.2407,-0.2433,-0.2438,-0.2442,-0.2446,-0.2455,-0.2461,-0.2394,-0.2394,-0.2394,0,0,-0.2224,-0.2249,-0.2259,-0.2296,-0.2308,-0.2334,-0.2326,-0.2332,-0.2362,-0.2349,-0.2392,-0.2392,-0.2397,-0.2425,-0.2431,-0.242,-0.2448,-0.2444,-0.2448,-0.2449,-0.2457,-0.2464,-0.247,-0.2395,-0.2395,-0.2394,0,0,-0.2224,-0.2251,-0.2269,-0.229,-0.231,-0.2329,-0.2329,-0.2353,-0.2371,-0.2404,-0.2406,-0.2418,-0.2442,-0.2458,-0.2465,-0.2498,-0.2473,-0.2495,-0.2527,-0.2536,-0.2542,-0.2547,-0.2515,-0.2517,-0.2498,-0.2498,-0.2499,0,-0.2218,-0.2254,-0.2273,-0.2301,-0.2323,-0.2328,-0.2355,-0.2379,-0.2408,-0.2433,-0.2419,-0.2467,-0.2463,-0.2505,-0.2515,-0.2511,-0.2496,-0.2508,-0.2543,-0.2548,-0.2552,-0.2519,-0.252,-0.2501,-0.2501,-0.2501,-0.25,0,-0.2234,-0.2268,-0.2276,-0.2327,-0.2355,-0.2368,-0.2409,-0.2439,-0.2457,-0.2484,-0.2525,-0.2526,-0.2552,-0.2553,-0.2544,-0.2577,-0.2548,-0.2549,-0.2531,-0.2563,-0.2525,-0.2525,-0.2505,-0.2504,-0.2503,-0.2503,0,0,-0.2202,-0.2276,-0.2276,-0.2308,-0.2368,-0.2385,-0.2451,-0.2508,-0.2541,-0.2571,-0.2618,-0.264,-0.263,-0.2636,-0.2625,-0.2629,-0.2633,-0.2601,-0.26,-0.2573,-0.2625,-0.2531,-0.2522,-0.2644,-0.2645,-0.2646,-0.2579,0,-0.2206,-0.2254,-0.2305,-0.2358,-0.2385,-0.2441,-0.2501,-0.2555,-0.2595,-0.2641,-0.2655,-0.268,-0.2666,-0.2661,-0.2673,-0.2645,-0.264,-0.2649,-0.2595,-0.2593,-0.251,-0.2522,-0.2463,-0.2393,-0.2579,-0.2579,-0.2579,0,-0.2198,-0.2238,-0.2283,-0.2377,-0.2395,-0.2432,-0.2521,-0.2578,-0.2655,-0.2685,-0.2726,-0.2732,-0.275,-0.272,-0.2708,-0.2714,-0.2673,-0.2646,-0.2643,-0.2539,-0.2501,-0.2395,-0.2386,-0.2399,-0.2579,-0.2579,-0.2579,0,-0.2136,-0.2222,-0.2255,-0.2283,-0.2387,-0.2425,-0.2485,-0.2575,-0.2617,-0.2698,-0.2708,-0.2764,-0.274,-0.2747,-0.2684,-0.2702,-0.2642,-0.2663,-0.254,-0.2532,-0.2461,-0.2445,-0.2463,-0.265,-0.265,-0.2651,-0.2651,0,-0.2115,-0.2144,-0.2219,-0.2233,-0.2286,-0.2376,-0.2432,-0.2511,-0.2587,-0.261,-0.2701,-0.2688,-0.2741,-0.2712,-0.2692,-0.2597,-0.2649,-0.254,-0.2515,-0.2473,-0.246,-0.245,-0.247,-0.2648,-0.2649,-0.2649,-0.2649,0,-0.2047,-0.2093,-0.2137,-0.2227,-0.2251,-0.2284,-0.2384,-0.2415,-0.2503,-0.2528,-0.2544,-0.2612,-0.2576,-0.2598,-0.2572,-0.2557,-0.2468,-0.2457,-0.238,-0.2348,-0.2267,-0.229,-0.22,-0.2147,-0.2341,-0.2338,-0.2336,0,-0.2021,-0.2023,-0.2098,-0.2106,-0.2143,-0.2199,-0.2229,-0.2351,-0.2375,-0.2448,-0.2432,-0.2432,-0.2402,-0.2349,-0.2348,-0.2314,-0.2313,-0.2221,-0.2257,-0.2246,-0.2256,-0.2239,-0.2201,-0.2177,-0.2174,-0.2171,-0.2169,0,-0.1961,-0.1972,-0.2,-0.2014,-0.2034,-0.2076,-0.2121,-0.2123,-0.2235,-0.2249,-0.2227,-0.2215,-0.2196,-0.2159,-0.2137,-0.2105,-0.2186,-0.2161,-0.2193,-0.2158,-0.21,-0.2041,-0.2215,-0.2145,-0.2147,-0.2149,-0.215,-0.2151,-0.189,-0.1891,-0.1896,-0.1911,-0.1934,-0.1922,-0.1898,-0.1942,-0.1946,-0.196,-0.201,-0.2019,-0.2057,-0.203,-0.1988,-0.1957,-0.197,-0.1948,-0.1982,-0.1968,-0.1908,-0.1997,-0.1875,-0.1876,-0.1877,-0.1877,-0.1878,0,-0.1797,-0.1793,-0.1792,-0.1791,-0.176,-0.1812,-0.1799,-0.175,-0.1695,-0.1789,-0.1785,-0.1913,-0.1877,-0.1925,-0.1922,-0.1854,-0.181,-0.1803,-0.1815,-0.179,-0.1911,-0.1898,-0.1723,-0.1723,-0.1723,-0.1723,-0.1723,-0.1723,-0.174,-0.1696,-0.1702,-0.161,-0.1599,-0.1509,-0.1465,-0.1421,-0.1456,-0.1514,-0.1663,-0.1816,-0.1909,-0.2026,-0.1954,-0.1855,-0.1809,-0.1705,-0.172,-0.1885,-0.1904,-0.1921,-0.1916,-0.1748,-0.1748,-0.1554,-0.1553,-0.1552]},{"header":{"parameterUnit":"m.s-1","parameterCategory":2,"la1":30.2991,"la2":30.254,"lo1":-89.0895,"lo2":-89.0444,"dy":0.0017,"dx":0.0017,"nx":28,"ny":28,"refTime":"2025-11-29T03:00:00:Z","depth":"0","parameterNumber":3,"parameterNumberName":"V-component_of_CURRENTS"},"data":[0,0,0,0,0,0,0,0,0,0,0,0,0,0,0,0,0,0,0,0,0,0,0,0,0,0,0,0,0,0,0,0,0,0,0,0,0,0,0,0,0,0,0,0,0,0,0,0,0,0,0,0,0,0,0,0,0,0,-0.0532,-0.053,0,-0.0407,-0.0406,-0.0405,-0.0368,-0.0368,-0.0368,-0.0368,-0.0306,-0.0304,-0.0303,0,0,0,0,0,0,0,0,0,0,0,0,0,-0.0671,-0.067,-0.0532,-0.053,-0.0528,-0.0407,-0.0406,-0.0405,-0.0368,-0.0368,-0.0368,-0.0368,-0.0307,-0.0305,-0.0303,0,0,0,0,0,0,0,0,0,0,0,0,0,-0.059,-0.0669,-0.0532,-0.0491,-0.0486,-0.0408,-0.0406,-0.0405,-0.0367,-0.0368,-0.0368,-0.0368,-0.0308,-0.0305,-0.0302,-0.028,0,0,-0.0294,-0.0293,0,0,0,0,0,0,0,0,-0.0595,-0.0586,-0.0499,-0.0494,-0.0487,-0.0399,-0.0432,-0.0364,-0.0367,-0.0418,-0.0368,-0.0368,-0.034,-0.0334,-0.0316,-0.0277,-0.0274,-0.0294,-0.0292,-0.0291,-0.029,0,0,0,0,0,0,0,-0.0601,-0.059,-0.0487,-0.0497,-0.049,-0.0456,-0.0446,-0.0419,-0.0384,-0.0413,-0.0409,-0.0387,-0.0338,-0.0319,-0.0315,-0.0274,-0.0294,-0.0291,-0.029,-0.0289,-0.0229,-0.0229,0,0,0,0,0,0,-0.0609,-0.0596,-0.0491,-0.0483,-0.0537,-0.0453,-0.0442,-0.0431,-0.0382,-0.0373,-0.0387,-0.0386,-0.0324,-0.0318,-0.0312,-0.0296,-0.0291,-0.0288,-0.0287,-0.0229,-0.0229,-0.0229,0,0,0,0,0,0,-0.0613,-0.0601,-0.0496,-0.0532,-0.0516,-0.045,-0.0438,-0.0428,-0.0408,-0.0361,-0.0354,-0.0377,-0.0324,-0.0316,-0.0293,-0.0294,-0.0287,-0.0285,-0.0229,-0.0229,-0.0229,-0.0256,0,0,0,0,0,0,-0.0617,-0.0604,-0.0614,-0.0533,-0.0514,-0.0455,-0.0437,-0.0426,-0.0392,-0.039,-0.035,-0.0344,-0.0323,-0.0297,-0.029,-0.029,-0.0282,-0.0229,-0.0229,-0.0229,-0.0255,-0.0257,-0.0259,0,0,0,0,0,-0.0623,-0.0628,-0.0616,-0.0603,-0.0526,-0.0454,-0.0442,-0.0399,-0.0392,-0.0384,-0.0359,-0.0346,-0.0293,-0.0295,-0.0286,-0.0285,-0.0229,-0.0229,-0.0229,-0.0255,-0.0257,-0.0259,0,0,0,0,0,0,-0.0687,-0.0622,-0.0607,-0.0592,-0.0531,-0.0446,-0.0431,-0.0401,-0.0373,-0.0375,-0.0341,-0.0333,-0.0315,-0.0296,-0.0299,-0.0269,-0.026,-0.0259,-0.0283,-0.0285,-0.0286,-0.0295,-0.028,0,0,0,0,0,-0.0707,-0.0701,-0.062,-0.0608,-0.0577,-0.0507,-0.0477,-0.0443,-0.0396,-0.0384,-0.0356,-0.033,-0.0308,-0.0294,-0.0272,-0.0251,-0.0225,-0.0247,-0.0249,-0.025,-0.0252,-0.0213,-0.0211,-0.023,-0.023,-0.023,0,0,-0.0725,-0.069,-0.0685,-0.0623,-0.0572,-0.0532,-0.0491,-0.0441,-0.0419,-0.0383,-0.0361,-0.0335,-0.0304,-0.0284,-0.0274,-0.0269,-0.0231,-0.025,-0.0252,-0.0253,-0.0213,-0.0211,-0.0209,-0.023,-0.023,-0.023,0,0,-0.0741,-0.0725,-0.0716,-0.0671,-0.0598,-0.0555,-0.0542,-0.0462,-0.044,-0.0406,-0.0382,-0.0355,-0.0318,-0.0293,-0.0277,-0.0274,-0.0244,-0.0271,-0.0283,-0.0245,-0.0243,-0.0241,-0.0204,-0.0198,-0.027,-0.027,-0.027,0,-0.0767,-0.0747,-0.07,-0.067,-0.0638,-0.0568,-0.0541,-0.0504,-0.0434,-0.0418,-0.0408,-0.0345,-0.0321,-0.029,-0.0292,-0.0278,-0.0252,-0.0277,-0.0247,-0.0245,-0.0242,-0.0204,-0.0198,-0.0271,-0.0271,-0.0271,-0.0271,0,-0.0765,-0.0751,-0.0734,-0.0688,-0.0651,-0.0614,-0.0547,-0.0523,-0.0492,-0.0452,-0.0414,-0.0371,-0.0333,-0.0322,-0.0306,-0.0278,-0.0264,-0.0255,-0.0242,-0.0242,-0.0202,-0.0195,-0.0273,-0.0273,-0.0272,-0.0272,0,0,-0.0819,-0.075,-0.0749,-0.0735,-0.066,-0.0629,-0.0595,-0.0542,-0.0524,-0.047,-0.044,-0.0397,-0.0367,-0.0347,-0.0316,-0.0284,-0.0244,-0.0267,-0.0264,-0.0231,-0.0159,-0.0129,-0.0118,-0.023,-0.0229,-0.0228,-0.0137,0,-0.0833,-0.0806,-0.0761,-0.074,-0.0717,-0.0654,-0.063,-0.058,-0.0534,-0.0493,-0.0437,-0.04,-0.0377,-0.0357,-0.032,-0.026,-0.0227,-0.0269,-0.0163,-0.016,-0.0134,-0.011,-0.011,-0.0027,-0.013,-0.0128,-0.0127,0,-0.085,-0.0833,-0.0815,-0.0773,-0.0755,-0.0736,-0.0691,-0.0656,-0.0581,-0.0543,-0.0487,-0.0434,-0.0371,-0.0356,-0.0248,-0.0277,-0.0226,-0.018,-0.0175,-0.0134,-0.0117,-0.0044,-0.001,0.0088,-0.0116,-0.0117,-0.0118,0,-0.0925,-0.0877,-0.0876,-0.0858,-0.0793,-0.0782,-0.0752,-0.0682,-0.0654,-0.0573,-0.0539,-0.0452,-0.0403,-0.0324,-0.022,-0.0234,-0.01,-0.0104,-0.0029,-0.0027,0.0002,0.0005,0.0142,-0.0038,-0.0038,-0.0039,-0.0039,0,-0.0965,-0.0961,-0.0916,-0.0914,-0.092,-0.0849,-0.084,-0.0789,-0.0715,-0.0676,-0.0576,-0.052,-0.0394,-0.0295,-0.0216,-0.0087,-0.009,-0.0022,0.0003,-0.0008,-0.0006,0.0102,0.0147,-0.0035,-0.0036,-0.0036,-0.0037,0,-0.103,-0.0998,-0.1,-0.0961,-0.0953,-0.0961,-0.0907,-0.0889,-0.0807,-0.0748,-0.0721,-0.0569,-0.0431,-0.0298,-0.0152,-0.0077,0.0098,0.0076,0.0058,0.0079,0.0229,0.0271,0.0443,0.0467,0.0174,0.0175,0.0176,0,-0.1045,-0.1057,-0.1058,-0.1071,-0.1054,-0.105,-0.1038,-0.0956,-0.0922,-0.0773,-0.0744,-0.0587,-0.0469,-0.0228,-0.0067,0.0097,0.0159,0.0192,0.0162,0.0252,0.0317,0.035,0.0357,0.0191,0.0193,0.0193,0.0194,0,-0.108,-0.1096,-0.1104,-0.1144,-0.1151,-0.1144,-0.1113,-0.1095,-0.0977,-0.0908,-0.0768,-0.0658,-0.0411,-0.0202,0.0022,0.0115,0.0262,0.0216,0.0317,0.0356,0.0392,0.042,0.0117,0.0203,0.0202,0.0201,0.0201,0.02,-0.1107,-0.1143,-0.1171,-0.1203,-0.1219,-0.1204,-0.1179,-0.1132,-0.1064,-0.0928,-0.0815,-0.0645,-0.0324,-0.0003,0.0113,0.0362,0.0339,0.0423,0.0471,0.0499,0.0514,0.0231,0.0337,0.0337,0.0336,0.0336,0.0336,0,-0.1139,-0.1177,-0.1216,-0.1243,-0.1257,-0.1247,-0.1197,-0.1151,-0.107,-0.0972,-0.0844,-0.0492,-0.0182,0.0105,0.0483,0.0618,0.0616,0.0681,0.0723,0.0718,0.0481,0.0472,0.0601,0.0601,0.0601,0.0601,0.0601,0.0601,-0.1156,-0.1212,-0.1238,-0.1261,-0.1268,-0.123,-0.1189,-0.1134,-0.1058,-0.0895,-0.0721,-0.0593,-0.0111,0.0566,0.0901,0.0908,0.0986,0.0988,0.1032,0.087,0.0849,0.0829,0.0832,0.1035,0.1035,0.1227,0.1229,0.1231]}],[{"header":{"parameterUnit":"m.s-1","parameterCategory":2,"la1":30.2991,"la2":30.254,"lo1":-89.0895,"lo2":-89.0444,"dy":0.0017,"dx":0.0017,"nx":28,"ny":28,"refTime":"2025-11-29T03:00:00:Z","depth":"2","parameterNumber":2,"parameterNumberName":"U-component_of_CURRENTS"},"data":[0,0,0,0,0,0,0,0,0,0,0,0,0,0,0,0,0,0,0,0,0,0,0,0,0,0,0,0,0,0,0,0,0,0,0,0,0,0,0,0,0,0,0,0,0,0,0,0,0,0,0,0,0,0,0,0,0,0,-0.2226,-0.2226,0,-0.2267,-0.2268,-0.2269,-0.2293,-0.2292,-0.2292,-0.2292,-0.2292,-0.2292,-0.2292,0,0,0,0,0,0,0,0,0,0,0,0,0,-0.2133,-0.2135,-0.2226,-0.2226,-0.2226,-0.2267,-0.2268,-0.2269,-0.2293,-0.2292,-0.2292,-0.2292,-0.2292,-0.2292,-0.2292,0,0,0,0,0,0,0,0,0,0,0,0,0,-0.2177,-0.2135,-0.2226,-0.224,-0.2241,-0.2267,-0.2268,-0.2269,-0.2293,-0.2292,-0.2292,-0.2292,-0.2291,-0.2292,-0.2292,-0.2303,0,0,-0.2293,-0.2294,0,0,0,0,0,0,0,0,-0.2175,-0.2181,-0.2238,-0.2239,-0.224,-0.2271,-0.2235,-0.2277,-0.2293,-0.2278,-0.2292,-0.2291,-0.2278,-0.228,-0.2295,-0.2303,-0.2303,-0.2293,-0.2294,-0.2294,-0.2294,0,0,0,0,0,0,0,-0.2172,-0.2179,-0.2246,-0.2238,-0.2239,-0.2232,-0.2239,-0.2243,-0.2282,-0.2279,-0.228,-0.2278,-0.2279,-0.2295,-0.2295,-0.2303,-0.2293,-0.2294,-0.2294,-0.2294,-0.2328,-0.2329,0,0,0,0,0,0,-0.2161,-0.2177,-0.2245,-0.2247,-0.2201,-0.2234,-0.2241,-0.2265,-0.2283,-0.2285,-0.2278,-0.2279,-0.2294,-0.2294,-0.2295,-0.233,-0.2294,-0.2294,-0.2294,-0.2327,-0.2328,-0.2329,0,0,0,0,0,0,-0.216,-0.2168,-0.2243,-0.2208,-0.2216,-0.2236,-0.2262,-0.2266,-0.2276,-0.2282,-0.2284,-0.2283,-0.2294,-0.2294,-0.2308,-0.2329,-0.2294,-0.2295,-0.2327,-0.2328,-0.2329,-0.2386,0,0,0,0,0,0,-0.2157,-0.2168,-0.2191,-0.2208,-0.2218,-0.2256,-0.2262,-0.2267,-0.2274,-0.2275,-0.2287,-0.2287,-0.2294,-0.2307,-0.2308,-0.2329,-0.2295,-0.2326,-0.2327,-0.2328,-0.2383,-0.2389,-0.2394,0,0,0,0,0,-0.2154,-0.2175,-0.2193,-0.2201,-0.2247,-0.2255,-0.226,-0.2274,-0.2275,-0.2282,-0.2297,-0.2287,-0.2316,-0.2309,-0.2309,-0.2331,-0.2325,-0.2327,-0.2328,-0.2381,-0.2388,-0.2393,0,0,0,0,0,0,-0.2143,-0.218,-0.2199,-0.2232,-0.2243,-0.2258,-0.2263,-0.2271,-0.2291,-0.2288,-0.2298,-0.23,-0.232,-0.2313,-0.2305,-0.2342,-0.2317,-0.2319,-0.2357,-0.2363,-0.2369,-0.2374,-0.2295,0,0,0,0,0,-0.2154,-0.218,-0.2206,-0.2228,-0.2235,-0.2251,-0.2258,-0.2264,-0.2276,-0.2284,-0.2302,-0.2313,-0.2329,-0.2335,-0.2345,-0.2364,-0.2346,-0.2376,-0.2381,-0.2386,-0.239,-0.2397,-0.2403,-0.2334,-0.2334,-0.2334,0,0,-0.2148,-0.2175,-0.2187,-0.2227,-0.2237,-0.2261,-0.2255,-0.2257,-0.2289,-0.2279,-0.2329,-0.233,-0.2337,-0.2367,-0.2375,-0.2363,-0.2391,-0.2388,-0.2392,-0.2394,-0.2399,-0.2406,-0.2412,-0.2335,-0.2335,-0.2334,0,0,-0.2143,-0.218,-0.2199,-0.2218,-0.2235,-0.2253,-0.2252,-0.2275,-0.23,-0.2335,-0.2342,-0.2357,-0.2384,-0.2402,-0.2411,-0.2445,-0.2418,-0.2443,-0.2478,-0.2485,-0.2491,-0.2496,-0.2462,-0.2464,-0.2447,-0.2447,-0.2447,0,-0.2139,-0.218,-0.22,-0.2226,-0.2246,-0.2251,-0.2275,-0.2304,-0.2334,-0.2365,-0.2353,-0.2408,-0.2405,-0.2451,-0.2465,-0.2459,-0.2443,-0.2457,-0.2493,-0.2497,-0.2501,-0.2466,-0.2467,-0.245,-0.245,-0.245,-0.2449,0,-0.215,-0.2188,-0.2193,-0.2245,-0.227,-0.2279,-0.2323,-0.2358,-0.2383,-0.2416,-0.2464,-0.2468,-0.2498,-0.25,-0.2494,-0.2529,-0.25,-0.2498,-0.2479,-0.2512,-0.2472,-0.2472,-0.2455,-0.2453,-0.2453,-0.2452,0,0,-0.2121,-0.2192,-0.2193,-0.2225,-0.2282,-0.2294,-0.2364,-0.2426,-0.2464,-0.2503,-0.2554,-0.2585,-0.2579,-0.2587,-0.2578,-0.2583,-0.2587,-0.2554,-0.2553,-0.2524,-0.2573,-0.2475,-0.2465,-0.2596,-0.2597,-0.2597,-0.2526,0,-0.2123,-0.2168,-0.2218,-0.2265,-0.229,-0.2348,-0.2411,-0.247,-0.2516,-0.2567,-0.2592,-0.262,-0.2616,-0.2611,-0.2626,-0.2597,-0.2593,-0.2604,-0.2543,-0.254,-0.2452,-0.2465,-0.2279,-0.2195,-0.2526,-0.2526,-0.2526,0,-0.2115,-0.2152,-0.2194,-0.2283,-0.2301,-0.2336,-0.2428,-0.2487,-0.2573,-0.261,-0.2657,-0.2666,-0.2691,-0.2664,-0.2658,-0.2666,-0.2625,-0.2597,-0.2594,-0.2484,-0.2443,-0.2219,-0.2182,-0.2526,-0.2526,-0.2526,-0.2526,0,-0.2056,-0.2136,-0.2169,-0.2195,-0.2293,-0.2333,-0.2392,-0.2487,-0.2534,-0.2619,-0.2629,-0.2693,-0.2671,-0.2682,-0.2624,-0.2647,-0.2582,-0.2607,-0.2481,-0.2472,-0.2292,-0.2265,-0.2594,-0.2594,-0.2595,-0.2595,-0.2595,0,-0.2035,-0.2063,-0.2135,-0.2148,-0.2199,-0.2284,-0.2342,-0.2423,-0.25,-0.2525,-0.2622,-0.2608,-0.267,-0.2641,-0.2627,-0.2533,-0.2585,-0.2481,-0.2454,-0.2302,-0.2279,-0.2555,-0.2552,-0.2592,-0.2593,-0.2593,-0.2594,0,-0.1969,-0.2016,-0.2054,-0.214,-0.2165,-0.2196,-0.2295,-0.2326,-0.2416,-0.2441,-0.2457,-0.2528,-0.2495,-0.252,-0.2495,-0.2485,-0.2439,-0.2384,-0.2181,-0.2132,-0.2329,-0.2329,-0.2275,-0.2271,-0.2268,-0.2265,-0.2263,0,-0.1945,-0.1947,-0.2016,-0.2023,-0.2059,-0.2114,-0.2144,-0.2265,-0.2288,-0.2359,-0.234,-0.2341,-0.2311,-0.2257,-0.2238,-0.2202,-0.2282,-0.2006,-0.2034,-0.232,-0.23,-0.2305,-0.231,-0.1805,-0.1799,-0.1794,-0.179,0,-0.1885,-0.1897,-0.192,-0.1933,-0.1952,-0.1992,-0.2036,-0.2035,-0.2143,-0.2156,-0.2131,-0.2117,-0.2078,-0.1969,-0.1937,-0.1894,-0.2019,-0.1907,-0.2246,-0.1923,-0.1873,-0.1855,-0.1875,-0.1747,-0.1752,-0.1755,-0.1757,-0.1759,-0.1817,-0.1818,-0.1821,-0.1833,-0.1853,-0.1838,-0.1813,-0.1846,-0.1845,-0.1833,-0.1886,-0.1829,-0.1823,-0.1703,-0.1617,-0.1576,-0.1731,-0.1678,-0.1695,-0.1716,-0.1683,-0.1631,-0.1451,-0.1453,-0.1455,-0.1457,-0.1459,0,-0.1727,-0.1728,-0.1723,-0.1718,-0.1679,-0.1735,-0.1715,-0.165,-0.1582,-0.1616,-0.1591,-0.1429,-0.136,-0.1372,-0.1258,-0.125,-0.1257,-0.1186,-0.1199,-0.1241,-0.1278,-0.1225,-0.087,-0.0869,-0.0868,-0.0866,0,0,-0.1676,-0.1631,-0.1633,-0.1536,-0.1525,-0.1428,-0.138,-0.1305,-0.1289,-0.1204,-0.1199,-0.1304,-0.1341,-0.112,-0.1052,-0.0951,-0.1089,-0.0895,-0.1361,-0.1416,-0.1452,-0.1545,-0.1508,0,0,0,0,0]},{"header":{"parameterUnit":"m.s-1","parameterCategory":2,"la1":30.2991,"la2":30.254,"lo1":-89.0895,"lo2":-89.0444,"dy":0.0017,"dx":0.0017,"nx":28,"ny":28,"refTime":"2025-11-29T03:00:00:Z","depth":"2","parameterNumber":3,"parameterNumberName":"V-component_of_CURRENTS"},"data":[0,0,0,0,0,0,0,0,0,0,0,0,0,0,0,0,0,0,0,0,0,0,0,0,0,0,0,0,0,0,0,0,0,0,0,0,0,0,0,0,0,0,0,0,0,0,0,0,0,0,0,0,0,0,0,0,0,0,-0.0408,-0.0406,0,-0.0281,-0.028,-0.0279,-0.0249,-0.0249,-0.025,-0.025,-0.019,-0.0188,-0.0186,0,0,0,0,0,0,0,0,0,0,0,0,0,-0.053,-0.0529,-0.0408,-0.0406,-0.0404,-0.0281,-0.028,-0.0278,-0.0249,-0.0249,-0.025,-0.0251,-0.0191,-0.0188,-0.0186,0,0,0,0,0,0,0,0,0,0,0,0,0,-0.0452,-0.0529,-0.0409,-0.0371,-0.0366,-0.0281,-0.028,-0.0278,-0.0249,-0.025,-0.025,-0.0251,-0.0192,-0.0189,-0.0186,-0.0154,0,0,-0.0177,-0.0175,0,0,0,0,0,0,0,0,-0.0457,-0.0449,-0.0379,-0.0373,-0.0368,-0.0277,-0.03,-0.0238,-0.0249,-0.0299,-0.025,-0.0251,-0.0222,-0.0216,-0.0197,-0.0152,-0.0149,-0.0176,-0.0174,-0.0173,-0.0172,0,0,0,0,0,0,0,-0.0463,-0.0453,-0.0363,-0.0376,-0.0369,-0.0327,-0.0318,-0.0288,-0.0263,-0.0294,-0.0291,-0.0268,-0.022,-0.02,-0.0195,-0.0148,-0.0176,-0.0174,-0.0172,-0.0171,-0.0111,-0.0111,0,0,0,0,0,0,-0.0472,-0.0459,-0.0367,-0.0358,-0.0409,-0.0325,-0.0315,-0.031,-0.0262,-0.0253,-0.0268,-0.0267,-0.0205,-0.0199,-0.0193,-0.0182,-0.0173,-0.017,-0.0169,-0.0111,-0.0111,-0.0111,0,0,0,0,0,0,-0.0476,-0.0466,-0.0372,-0.0401,-0.0385,-0.0322,-0.0316,-0.0307,-0.029,-0.024,-0.0234,-0.0262,-0.0205,-0.0198,-0.0176,-0.0179,-0.0169,-0.0166,-0.0111,-0.0111,-0.0111,-0.0142,0,0,0,0,0,0,-0.048,-0.0469,-0.0487,-0.0402,-0.0384,-0.0328,-0.0315,-0.0303,-0.0273,-0.0271,-0.0232,-0.0227,-0.0205,-0.0181,-0.0173,-0.0175,-0.0164,-0.011,-0.0111,-0.0111,-0.0141,-0.0143,-0.0146,0,0,0,0,0,-0.0486,-0.0494,-0.0489,-0.0478,-0.0405,-0.0327,-0.0315,-0.0275,-0.0272,-0.0264,-0.0244,-0.0229,-0.0178,-0.0178,-0.0169,-0.017,-0.011,-0.0111,-0.0111,-0.014,-0.0143,-0.0146,0,0,0,0,0,0,-0.0548,-0.0489,-0.0482,-0.0472,-0.0411,-0.0321,-0.0306,-0.0278,-0.0252,-0.0259,-0.0224,-0.0217,-0.0201,-0.0181,-0.0182,-0.0156,-0.0144,-0.0143,-0.0169,-0.0172,-0.0174,-0.0182,-0.0161,0,0,0,0,0,-0.0572,-0.0572,-0.0493,-0.0486,-0.0456,-0.0386,-0.0356,-0.0323,-0.0276,-0.0265,-0.0238,-0.0215,-0.0193,-0.0181,-0.0158,-0.0137,-0.011,-0.0134,-0.0137,-0.0139,-0.014,-0.01,-0.0098,-0.0113,-0.0113,-0.0113,0,0,-0.0591,-0.056,-0.0559,-0.0501,-0.0451,-0.0409,-0.037,-0.0319,-0.0299,-0.0263,-0.0245,-0.0221,-0.019,-0.0172,-0.0163,-0.0156,-0.012,-0.0139,-0.0141,-0.0142,-0.01,-0.0098,-0.0097,-0.0113,-0.0113,-0.0113,0,0,-0.0605,-0.0599,-0.0594,-0.0549,-0.0478,-0.0433,-0.0421,-0.0339,-0.0322,-0.029,-0.0268,-0.0245,-0.0207,-0.0184,-0.0168,-0.0168,-0.0136,-0.0167,-0.0182,-0.0142,-0.014,-0.0139,-0.0102,-0.0097,-0.0167,-0.0167,-0.0167,0,-0.0634,-0.0621,-0.0576,-0.0547,-0.0516,-0.0447,-0.0419,-0.0383,-0.0314,-0.0302,-0.0294,-0.0235,-0.0211,-0.0182,-0.0188,-0.0173,-0.0148,-0.0173,-0.0145,-0.0142,-0.014,-0.0103,-0.0097,-0.0168,-0.0168,-0.0168,-0.0168,0,-0.0631,-0.0624,-0.0606,-0.0565,-0.0526,-0.0489,-0.0423,-0.0401,-0.0375,-0.0337,-0.0304,-0.0262,-0.0227,-0.0218,-0.0203,-0.0177,-0.0164,-0.0153,-0.0137,-0.014,-0.0101,-0.0094,-0.017,-0.017,-0.0169,-0.0169,0,0,-0.0689,-0.0623,-0.0624,-0.0612,-0.0537,-0.0504,-0.0472,-0.0421,-0.0407,-0.0356,-0.033,-0.0292,-0.0264,-0.0245,-0.0216,-0.0184,-0.0148,-0.0169,-0.0166,-0.0132,-0.0062,-0.0037,-0.0027,-0.0132,-0.0131,-0.013,-0.0042,0,-0.0703,-0.068,-0.0636,-0.0615,-0.0593,-0.0531,-0.0508,-0.0461,-0.0418,-0.038,-0.0328,-0.0294,-0.0274,-0.0257,-0.0221,-0.0162,-0.0131,-0.0173,-0.0064,-0.0061,-0.0038,-0.0018,-0.0028,0.0051,-0.0035,-0.0033,-0.0032,0,-0.0722,-0.0707,-0.0693,-0.0651,-0.0634,-0.0615,-0.0574,-0.054,-0.0469,-0.0434,-0.0381,-0.0329,-0.027,-0.0255,-0.0151,-0.0179,-0.013,-0.0085,-0.008,-0.0041,-0.0023,0.004,0.0067,-0.002,-0.0021,-0.0022,-0.0023,0,-0.0799,-0.0753,-0.0756,-0.0738,-0.0673,-0.0666,-0.0636,-0.0569,-0.0545,-0.0467,-0.0434,-0.0349,-0.0303,-0.0224,-0.0125,-0.0138,-0.0007,-0.0008,0.0062,0.0064,0.0085,0.0088,0.0058,0.0058,0.0057,0.0057,0.0057,0,-0.084,-0.0839,-0.0799,-0.0798,-0.0807,-0.0736,-0.0731,-0.0682,-0.0609,-0.0572,-0.0475,-0.042,-0.0295,-0.0198,-0.012,0.0004,0.0003,0.0067,0.0092,0.0074,0.0074,0.0034,0.003,0.006,0.006,0.0059,0.0058,0,-0.0904,-0.0878,-0.0882,-0.0845,-0.084,-0.085,-0.08,-0.0783,-0.0705,-0.0647,-0.0622,-0.0472,-0.0337,-0.0206,-0.0061,0.0012,0.0125,0.0161,0.0132,0.0153,0.0165,0.0158,0.0251,0.0253,0.0254,0.0255,0.0256,0,-0.0921,-0.0936,-0.094,-0.0956,-0.0941,-0.0941,-0.0931,-0.0853,-0.0819,-0.0675,-0.0645,-0.0493,-0.0377,-0.0141,0.0017,0.0179,0.0165,0.0258,0.023,0.0171,0.0186,0.0177,0.0169,0.0248,0.0248,0.0249,0.025,0,-0.0958,-0.0976,-0.0985,-0.1029,-0.104,-0.1035,-0.1008,-0.099,-0.0874,-0.0807,-0.0671,-0.0564,-0.0322,-0.012,0.0097,0.0185,0.0235,0.0277,0.0242,0.0194,0.0173,0.0186,0.0177,0.0256,0.0255,0.0255,0.0254,0.0254,-0.0987,-0.1025,-0.1056,-0.109,-0.1108,-0.1095,-0.1072,-0.1022,-0.0955,-0.0808,-0.0706,-0.0525,-0.0318,-0.0005,0.0156,0.0304,0.0286,0.0326,0.0321,0.0317,0.0295,0.0277,0.0375,0.0375,0.0375,0.0375,0.0375,0,-0.1021,-0.1066,-0.1107,-0.1136,-0.1144,-0.1141,-0.1092,-0.1032,-0.0945,-0.0831,-0.0698,-0.0441,-0.0209,-0.0006,0.0233,0.0373,0.0355,0.0395,0.0347,0.034,0.0335,0.0311,0.0397,0.0398,0.0398,0.0398,0,0,-0.1044,-0.1101,-0.1125,-0.1149,-0.116,-0.1119,-0.1078,-0.0994,-0.0897,-0.0765,-0.0642,-0.0471,-0.0213,-0.0034,0.0152,0.0279,0.0264,0.0287,0.0256,0.0169,0.0162,0.0285,0.0241,0,0,0,0,0]}],[{"header":{"parameterUnit":"m.s-1","parameterCategory":2,"la1":30.2991,"la2":30.254,"lo1":-89.0895,"lo2":-89.0444,"dy":0.0017,"dx":0.0017,"nx":28,"ny":28,"refTime":"2025-11-29T03:00:00:Z","depth":"4","parameterNumber":2,"parameterNumberName":"U-component_of_CURRENTS"},"data":[0,0,0,0,0,0,0,0,0,0,0,0,0,0,0,0,0,0,0,0,0,0,0,0,0,0,0,0,0,0,0,0,0,0,0,0,0,0,0,0,0,0,0,0,0,0,0,0,0,0,0,0,0,0,0,0,0,0,-0.0865,-0.0867,0,-0.0724,-0.0718,-0.0713,-0.0643,-0.0647,-0.0652,-0.0656,-0.083,-0.083,-0.0831,0,0,0,0,0,0,0,0,0,0,0,0,0,-0.0867,-0.0864,-0.0865,-0.0867,-0.087,-0.0725,-0.0718,-0.0711,-0.0642,-0.0648,-0.0653,-0.0658,-0.0829,-0.083,-0.0831,0,0,0,0,0,0,0,0,0,0,0,0,0,-0.0764,-0.0863,-0.0864,-0.0853,-0.0855,-0.0726,-0.0718,-0.071,-0.0641,-0.0648,-0.0654,-0.0661,-0.0829,-0.083,-0.0831,-0.0703,0,0,-0.0833,-0.0833,0,0,0,0,0,0,0,0,-0.077,-0.0758,-0.0852,-0.0855,-0.0856,-0.075,-0.0785,-0.074,-0.0639,-0.0671,-0.0656,-0.0664,-0.0859,-0.0857,-0.0743,-0.0711,-0.0718,-0.0833,-0.0834,-0.0834,-0.0834,0,0,0,0,0,0,0,-0.0777,-0.0763,-0.076,-0.0856,-0.0858,-0.0789,-0.0777,-0.0769,-0.0698,-0.0669,-0.0676,-0.0734,-0.0856,-0.0741,-0.0749,-0.0721,-0.0833,-0.0834,-0.0834,-0.0835,-0.0945,-0.0947,0,0,0,0,0,0,-0.0895,-0.077,-0.0765,-0.0761,-0.0883,-0.0788,-0.0773,-0.0738,-0.0691,-0.0702,-0.0729,-0.0733,-0.0737,-0.0747,-0.0756,-0.0932,-0.0834,-0.0835,-0.0835,-0.0943,-0.0946,-0.0948,0,0,0,0,0,0,-0.0893,-0.0891,-0.0772,-0.0807,-0.0794,-0.0787,-0.0744,-0.0733,-0.0745,-0.0743,-0.0751,-0.0778,-0.0742,-0.0755,-0.085,-0.0929,-0.0835,-0.0836,-0.094,-0.0944,-0.0947,-0.1078,0,0,0,0,0,0,-0.0891,-0.0887,-0.0893,-0.0812,-0.0798,-0.0813,-0.0743,-0.0727,-0.0788,-0.0792,-0.0785,-0.0798,-0.0749,-0.0849,-0.085,-0.0928,-0.0836,-0.0937,-0.0941,-0.0946,-0.1071,-0.1086,-0.1099,0,0,0,0,0,-0.0889,-0.0903,-0.089,-0.0895,-0.0803,-0.0823,-0.0803,-0.0788,-0.0787,-0.0811,-0.0802,-0.0805,-0.0881,-0.085,-0.0852,-0.0932,-0.0934,-0.094,-0.0945,-0.1064,-0.1083,-0.1099,0,0,0,0,0,0,-0.091,-0.0899,-0.0884,-0.0891,-0.0919,-0.0833,-0.0834,-0.0851,-0.083,-0.0845,-0.0822,-0.0834,-0.0931,-0.0919,-0.0887,-0.0977,-0.0914,-0.092,-0.1004,-0.1021,-0.1035,-0.1053,-0.0837,0,0,0,0,0,-0.0921,-0.0921,-0.0925,-0.0943,-0.0937,-0.0893,-0.0901,-0.0917,-0.0911,-0.0904,-0.0896,-0.0899,-0.0918,-0.0975,-0.0952,-0.1016,-0.0986,-0.1074,-0.1088,-0.11,-0.1116,-0.1162,-0.1182,-0.0967,-0.0967,-0.0967,0,0,-0.0946,-0.0944,-0.0948,-0.0952,-0.0906,-0.0917,-0.09,-0.0949,-0.1002,-0.0935,-0.0958,-0.0941,-0.094,-0.0982,-0.1032,-0.1018,-0.1133,-0.1107,-0.1118,-0.1127,-0.117,-0.1191,-0.121,-0.0971,-0.097,-0.0969,0,0,-0.1001,-0.0964,-0.0977,-0.0988,-0.1032,-0.0999,-0.1067,-0.103,-0.1053,-0.1112,-0.1057,-0.1107,-0.1128,-0.1115,-0.1127,-0.1221,-0.1186,-0.124,-0.1357,-0.1402,-0.142,-0.1435,-0.1369,-0.1378,-0.1274,-0.1275,-0.1275,0,-0.1043,-0.1025,-0.1004,-0.1017,-0.1041,-0.1064,-0.1096,-0.1104,-0.1134,-0.1141,-0.1182,-0.1173,-0.1184,-0.1246,-0.1273,-0.1257,-0.1242,-0.1292,-0.1421,-0.1436,-0.145,-0.1379,-0.1388,-0.1282,-0.1281,-0.128,-0.128,0,-0.1071,-0.1086,-0.1089,-0.1085,-0.1116,-0.1154,-0.1196,-0.1217,-0.1262,-0.1271,-0.1363,-0.1363,-0.136,-0.1397,-0.1375,-0.1476,-0.1413,-0.1411,-0.1379,-0.148,-0.1397,-0.1404,-0.1292,-0.1289,-0.1287,-0.1285,0,0,-0.108,-0.1105,-0.111,-0.1122,-0.1154,-0.1181,-0.1242,-0.1282,-0.1327,-0.1405,-0.1452,-0.1528,-0.1519,-0.1533,-0.153,-0.1617,-0.1681,-0.1585,-0.1584,-0.1518,-0.1717,-0.162,-0.1615,-0.1724,-0.1727,-0.173,-0.1598,0,-0.1103,-0.114,-0.1161,-0.1219,-0.1213,-0.1237,-0.1302,-0.1362,-0.1406,-0.1439,-0.152,-0.1573,-0.1587,-0.1617,-0.1697,-0.1665,-0.1715,-0.1712,-0.1629,-0.1624,-0.1529,-0.1628,-0.1741,-0.1602,-0.1603,-0.1604,-0.1605,0,-0.1087,-0.1121,-0.1165,-0.125,-0.1252,-0.1311,-0.1348,-0.1431,-0.1482,-0.1529,-0.1588,-0.1612,-0.1695,-0.1731,-0.1782,-0.1785,-0.1763,-0.1774,-0.1769,-0.1646,-0.1544,-0.1493,-0.1615,-0.1614,-0.1614,-0.1613,-0.1612,0,-0.1031,-0.112,-0.1157,-0.1173,-0.1267,-0.1305,-0.137,-0.1431,-0.1483,-0.1572,-0.1597,-0.169,-0.1737,-0.1786,-0.1787,-0.179,-0.184,-0.1812,-0.1698,-0.1683,-0.1746,-0.1731,-0.1874,-0.1874,-0.1875,-0.1875,-0.1876,0,-0.0989,-0.1034,-0.1141,-0.1149,-0.1231,-0.1311,-0.1389,-0.1454,-0.1529,-0.1561,-0.1649,-0.1686,-0.1781,-0.1794,-0.179,-0.1751,-0.1821,-0.1726,-0.1679,-0.1792,-0.1784,-0.1745,-0.1731,-0.187,-0.1871,-0.1872,-0.1873,0,-0.0917,-0.0969,-0.1033,-0.1154,-0.1192,-0.1257,-0.1381,-0.142,-0.1531,-0.1558,-0.1594,-0.1673,-0.1702,-0.1745,-0.1784,-0.1732,-0.1722,-0.1692,-0.1752,-0.1706,-0.1507,-0.1502,-0.1506,-0.1503,-0.15,-0.1497,-0.1495,0,-0.0886,-0.0891,-0.1022,-0.1048,-0.1108,-0.1206,-0.1253,-0.139,-0.1402,-0.1527,-0.1505,-0.1586,-0.1617,-0.1566,-0.1646,-0.1611,-0.1625,-0.157,-0.1614,-0.1534,-0.1487,-0.1487,-0.1486,-0.149,-0.1489,-0.1488,-0.1487,0,-0.0819,-0.0866,-0.0912,-0.0983,-0.1034,-0.1083,-0.1152,-0.1169,-0.1295,-0.1389,-0.1396,-0.1428,-0.1444,-0.1474,-0.1486,-0.1471,-0.1588,-0.1537,-0.1543,-0.1583,-0.1513,-0.147,-0.1473,-0.1476,-0.1478,-0.1479,-0.148,0,-0.077,-0.077,-0.082,-0.0901,-0.0948,-0.0949,-0.1017,-0.1039,-0.1088,-0.1224,-0.121,-0.1316,-0.1399,-0.1397,-0.14,-0.1396,-0.137,-0.133,-0.1346,-0.1359,-0.1389,-0.1283,-0.1152,0,0,0,0,0,-0.0705,-0.0675,-0.0725,-0.0762,-0.0834,-0.0862,-0.0927,-0.0988,-0.11,-0.1062,-0.1139,-0.1152,-0.1196,-0.1252,-0.1216,-0.1328,-0.1374,-0.1282,-0.1335,-0.1416,-0.1429,-0.1488,0,0,0,0,0,0,-0.0578,-0.0634,-0.0674,-0.0674,-0.0683,-0.0706,-0.0756,-0.0834,-0.0819,-0.0949,-0.0975,-0.1063,-0.1117,-0.1186,-0.1182,-0.1198,-0.1206,-0.1342,-0.1339,-0.1409,-0.142,-0.1431,-0.1495,0,0,0,0,0]},{"header":{"parameterUnit":"m.s-1","parameterCategory":2,"la1":30.2991,"la2":30.254,"lo1":-89.0895,"lo2":-89.0444,"dy":0.0017,"dx":0.0017,"nx":28,"ny":28,"refTime":"2025-11-29T03:00:00:Z","depth":"4","parameterNumber":3,"parameterNumberName":"V-component_of_CURRENTS"},"data":[0,0,0,0,0,0,0,0,0,0,0,0,0,0,0,0,0,0,0,0,0,0,0,0,0,0,0,0,0,0,0,0,0,0,0,0,0,0,0,0,0,0,0,0,0,0,0,0,0,0,0,0,0,0,0,0,0,0,0.0146,0.0146,0,0.0164,0.0165,0.0166,0.0234,0.0235,0.0236,0.0237,0.0392,0.0395,0.0398,0,0,0,0,0,0,0,0,0,0,0,0,0,0.0074,0.0076,0.0147,0.0146,0.0146,0.0164,0.0165,0.0166,0.0234,0.0235,0.0236,0.0237,0.0391,0.0395,0.0399,0,0,0,0,0,0,0,0,0,0,0,0,0,0.0106,0.0077,0.0147,0.0178,0.0181,0.0164,0.0165,0.0166,0.0233,0.0235,0.0236,0.0238,0.039,0.0394,0.0399,0.0396,0,0,0.0414,0.0416,0,0,0,0,0,0,0,0,0.0104,0.0109,0.0174,0.0176,0.0179,0.0194,0.0196,0.0248,0.0233,0.0219,0.0237,0.0239,0.0334,0.0343,0.0349,0.0403,0.041,0.0414,0.0417,0.0419,0.042,0,0,0,0,0,0,0,0.0102,0.0108,0.0159,0.0173,0.0176,0.0158,0.0165,0.0206,0.0274,0.022,0.0224,0.0217,0.0337,0.0344,0.0353,0.0412,0.0414,0.0418,0.0421,0.0423,0.0562,0.0563,0,0,0,0,0,0,0.0092,0.0107,0.0158,0.0159,0.0138,0.0158,0.0166,0.0192,0.0271,0.0281,0.0215,0.022,0.0335,0.0348,0.0359,0.0434,0.0419,0.0423,0.0426,0.0561,0.0562,0.0563,0,0,0,0,0,0,0.0091,0.0098,0.0158,0.0127,0.0132,0.0157,0.0185,0.0191,0.0202,0.0264,0.028,0.022,0.0337,0.0352,0.0434,0.0439,0.0425,0.043,0.056,0.0562,0.0563,0.0538,0,0,0,0,0,0,0.009,0.0099,0.0112,0.0127,0.0134,0.0159,0.0183,0.019,0.0192,0.0199,0.0273,0.0289,0.0339,0.0426,0.0438,0.0445,0.0433,0.0559,0.0561,0.0562,0.0538,0.0539,0.0539,0,0,0,0,0,0.0088,0.0089,0.0114,0.0119,0.0154,0.0158,0.0161,0.0185,0.019,0.02,0.0271,0.0287,0.0444,0.0432,0.0445,0.0453,0.0558,0.056,0.0562,0.0538,0.0539,0.0539,0,0,0,0,0,0,0.0055,0.0096,0.0123,0.0137,0.0154,0.0168,0.0163,0.0176,0.0231,0.0236,0.0307,0.0329,0.0395,0.0429,0.0413,0.0498,0.0499,0.0504,0.0476,0.0477,0.0477,0.0449,0.0437,0,0,0,0,0,0.0055,0.0072,0.0107,0.0113,0.0123,0.0142,0.0143,0.0156,0.0198,0.0221,0.0286,0.035,0.0409,0.0449,0.0503,0.0553,0.0542,0.0565,0.0565,0.0565,0.0552,0.0533,0.0529,0.057,0.057,0.057,0,0,0.0037,0.006,0.0068,0.0106,0.0119,0.0125,0.0149,0.0141,0.016,0.023,0.0294,0.0351,0.0422,0.0488,0.0518,0.0522,0.0552,0.0568,0.0567,0.0554,0.0534,0.053,0.0526,0.0571,0.0571,0.0571,0,0,-0.0006,0.0038,0.004,0.0059,0.0074,0.0091,0.0088,0.0121,0.016,0.022,0.0275,0.0342,0.0437,0.0492,0.0529,0.056,0.055,0.0574,0.0562,0.0544,0.0539,0.0535,0.0523,0.0518,0.058,0.058,0.058,0,-0.0029,-0.0009,0.0034,0.0039,0.0041,0.0076,0.0067,0.0109,0.0169,0.0193,0.0243,0.0365,0.0436,0.0495,0.0528,0.0558,0.0544,0.0553,0.054,0.0536,0.0532,0.0521,0.0516,0.0579,0.0579,0.058,0.058,0,-0.006,-0.0045,-0.0051,-0.0016,-0.0008,-0.0017,0.004,0.0068,0.0116,0.0158,0.0238,0.035,0.0412,0.0456,0.0517,0.0529,0.0526,0.0534,0.0529,0.0526,0.0516,0.051,0.0578,0.0578,0.0579,0.0579,0,0,-0.01,-0.0076,-0.0076,-0.0075,-0.0039,-0.0045,-0.0011,0.0024,0.0029,0.0134,0.0153,0.0302,0.0343,0.0388,0.0463,0.0486,0.0476,0.0505,0.0505,0.0476,0.0429,0.044,0.0435,0.047,0.0469,0.0468,0.0435,0,-0.0133,-0.0151,-0.0123,-0.0144,-0.0146,-0.0107,-0.008,-0.0047,0.0011,0.0048,0.0158,0.0215,0.0323,0.0354,0.0394,0.0456,0.0459,0.0484,0.0451,0.0451,0.0445,0.0429,0.0465,0.0431,0.0429,0.0429,0.0428,0,-0.0152,-0.0168,-0.0198,-0.0203,-0.0201,-0.0209,-0.0197,-0.0168,-0.0108,-0.0059,0.0007,0.0083,0.0171,0.024,0.0329,0.0336,0.0371,0.0419,0.0417,0.0427,0.0451,0.0436,0.0418,0.0419,0.042,0.042,0.0421,0,-0.0194,-0.0212,-0.0248,-0.0246,-0.0245,-0.0258,-0.0256,-0.0213,-0.0188,-0.0143,-0.0125,-0.0029,0.0034,0.0092,0.0244,0.0261,0.0312,0.0334,0.0368,0.0369,0.0379,0.0383,0.0334,0.0334,0.0334,0.0334,0.0335,0,-0.0212,-0.0239,-0.0279,-0.0292,-0.0345,-0.032,-0.0351,-0.0327,-0.0298,-0.0277,-0.0187,-0.0141,-0.0001,0.0073,0.0172,0.0271,0.0247,0.0351,0.0354,0.0373,0.0378,0.0375,0.038,0.0333,0.0333,0.0334,0.0334,0,-0.0223,-0.0243,-0.0297,-0.034,-0.0359,-0.0397,-0.0417,-0.0423,-0.0387,-0.0366,-0.0354,-0.0237,-0.013,0.0002,0.0106,0.0189,0.0266,0.0291,0.0303,0.031,0.0345,0.0349,0.0298,0.0298,0.0298,0.0298,0.0298,0,-0.0226,-0.0252,-0.0347,-0.039,-0.0412,-0.0464,-0.0485,-0.0471,-0.046,-0.0401,-0.0382,-0.0293,-0.0198,-0.0045,0.0085,0.0216,0.0252,0.0269,0.0316,0.0329,0.0338,0.0342,0.0347,0.0298,0.0298,0.0298,0.0298,0,-0.023,-0.0272,-0.0318,-0.0427,-0.0479,-0.0522,-0.0544,-0.0553,-0.0511,-0.0489,-0.0401,-0.0305,-0.0192,-0.0048,0.0055,0.016,0.025,0.0269,0.027,0.0314,0.0328,0.0338,0.0342,0.0298,0.0298,0.0298,0.0298,0,-0.0232,-0.0264,-0.0342,-0.0444,-0.0511,-0.0545,-0.0569,-0.0547,-0.0538,-0.0464,-0.044,-0.031,-0.0231,-0.0079,0.0022,0.0122,0.0152,0.0184,0.019,0.0192,0.0192,0.0197,0.0112,0,0,0,0,0,-0.022,-0.0256,-0.0347,-0.0435,-0.0516,-0.0551,-0.0579,-0.0583,-0.0562,-0.0503,-0.0467,-0.0357,-0.019,-0.0116,-0.0017,0.0016,0.016,0.0133,0.0197,0.0297,0.0297,0.032,0,0,0,0,0,0,-0.0172,-0.0264,-0.0331,-0.0433,-0.0485,-0.0537,-0.0558,-0.0548,-0.0508,-0.0478,-0.039,-0.0332,-0.0173,-0.0238,-0.0011,0.0019,0.0072,0.0215,0.0217,0.0297,0.0297,0.0297,0.0321,0,0,0,0,0]}]]